LAPAN-TUBSAT

Last updated on Mon Sep 21 2026 00:02:45 GMT+0000 (Coordinated Universal Time)

1 29709U 07001A 26263.60215936 -.00000240 00000+0 -20761-4 0 9993 2 29709 98.1413 265.0133 0010845 232.3423 127.6808 14.86028598 65321
UTC large
Height (km)
Speed (km/s)
/
Latitude / Longitude
Inclination (degrees)
Orbital Period (minutes)
Azimuth
Elevation
Range (km)
Doppler Factor

Next 0 passes for location: London (51.5072 / 0.1276)

No passes found over London.
LAPAN-TUBSAT